"TOA5","AWS1","CR1000","7964","CR1000.Std.14","CPU:AWS1_114.CR1","64363","TBL110"
"TIMESTAMP","RECORD","Wind_spd_WVc(1)","Wind_spd_WVc(2)","Air_Temp_Avg","Humidity_Avg","SW_upper_Wm2_Avg","Rain_Tot","Press_Avg","Issui_Tot","Depth_cm","SR50A_Raw","Quality","Ground_Temp_Avg(1)","Ground_Temp_Avg(2)","SW_lower_Wm2_Avg","Albedo_Avg","SWC_per(1)","SWC_per(2)","Period(1)","Period(2)"
"TS","RN","","","","","","","","","","","","","","","","","","",""
"","","WVc","WVc","Avg","Avg","Avg","Tot","Avg","Tot","Smp","Smp","Smp","Avg","Avg","Avg","Avg","Smp","Smp","Smp","Smp"
"2018-03-14 00:00:00",331693,0.446,165.8,2.797,54.94,0,0,870.6115,0,59.97,2.566,185,0.662,1.013,0.007584261,0,52.83,60.56,33.99,35.81
"2018-03-14 00:10:00",331694,0.362,141.8,3.353,52.49,0,0,870.6224,0,59.91,2.563,190,0.661,1.021,0.07205047,0,52.83,60.56,33.99,35.81
"2018-03-14 00:20:00",331695,0.501,145.2,4.073,49.55,0,0,870.6248,0,60.32,2.559,190,0.648,1.036,0.3033704,0,52.83,60.56,33.99,35.81
"2018-03-14 00:30:00",331696,0.601,143.9,4.014,49.29,0,0,870.6252,0,59.89,2.562,190,0.675,1.022,0,0,52.83,60.56,33.99,35.81
"2018-03-14 00:40:00",331697,0.618,142,3.879,49.51,0,0,870.6253,0,60.21,2.558,190,0.676,1.022,0,0,52.83,60.56,33.99,35.81
"2018-03-14 00:50:00",331698,0.595,142.4,4.089,48.41,0,0,870.6253,0,59.81,2.566,190,0.678,1.022,0.06446622,0,52.88,60.56,34,35.81
"2018-03-14 01:00:00",331699,0.617,143.1,3.408,50.85,0,0,870.6168,0,59.87,2.565,181,0.678,1.024,0,0,52.83,60.56,33.99,35.81
"2018-03-14 01:10:00",331700,0.341,135.2,3.637,48.67,0,0,870.6172,0,60.05,2.562,190,0.679,1.026,0,0,52.88,60.56,34,35.81
"2018-03-14 01:20:00",331701,0.562,146.8,4.19,45.07,0,0,870.6172,0,59.91,2.559,191,0.679,1.027,0.04550556,0,52.88,60.56,34,35.81
"2018-03-14 01:30:00",331702,1.031,150.6,4.612,42.5,0,0,870.6234,0,60.01,2.558,189,0.679,1.044,0.1023875,0,52.83,60.56,33.99,35.81
"2018-03-14 01:40:00",331703,0.815,149.4,4.575,41.56,0,0,870.6249,0,59.45,2.568,190,0.679,1.07,0.00379213,0,52.83,60.56,33.99,35.81
"2018-03-14 01:50:00",331704,0.901,160.8,3.917,43.56,0,0,870.6168,0,59.65,2.565,185,0.679,1.076,0,0,52.88,60.5,34,35.79
"2018-03-14 02:00:00",331705,0.943,149.3,4.467,41.11,0,0,870.574,0,59.89,2.56,182,0.679,1.07,0.02654491,0,52.88,60.5,34,35.79
"2018-03-14 02:10:00",331706,0.654,140.3,4.345,41.61,0,0,870.4755,0,59.83,2.563,189,0.679,1.111,0,0,52.83,60.56,33.99,35.81
"2018-03-14 02:20:00",331707,0.737,145,4.088,42.56,0,0,870.3445,0,59.83,2.563,190,0.679,1.106,0,0,52.83,60.56,33.99,35.81
"2018-03-14 02:30:00",331708,0.642,138.5,4.029,43.03,0,0,870.3973,0,59.83,2.563,186,0.679,1.101,0,0,52.88,60.56,34,35.81
"2018-03-14 02:40:00",331709,0.603,141.9,3.672,44.99,0,0,870.417,0,59.13,2.572,189,0.679,1.097,0,0,52.83,60.56,33.99,35.81
"2018-03-14 02:50:00",331710,0.537,135.2,3.453,46.51,0,0,870.3514,0,60.34,2.558,190,0.679,1.069,0,0,52.88,60.56,34,35.81
"2018-03-14 03:00:00",331711,0.512,143.4,3.973,46.42,0,0,870.3298,0,59.91,2.565,187,0.679,1.061,0.02275278,0,52.88,60.56,34,35.81
"2018-03-14 03:10:00",331712,0.381,129,3.772,49.1,0,0,870.3205,0,59.65,2.565,190,0.679,1.063,0,0,52.88,60.56,34,35.81
"2018-03-14 03:20:00",331713,0.291,124,4.072,49.41,0,0,870.3044,0,59.27,2.569,189,0.679,1.054,0,0,52.88,60.56,34,35.81
"2018-03-14 03:30:00",331714,0.391,132.6,3.614,53.21,0,0,870.2354,0,59.45,2.571,187,0.679,1.036,0,0,52.88,60.56,34,35.81
"2018-03-14 03:40:00",331715,0.243,134.6,2.836,58.68,0,0,870.0992,0,60.03,2.565,190,0.679,1.029,0,0,52.88,60.62,34,35.82
"2018-03-14 03:50:00",331716,0.354,119.2,3.551,57.31,0,0,870.0991,0,59.73,2.566,191,0.679,1.029,0.01896065,0,52.88,60.56,34,35.81
"2018-03-14 04:00:00",331717,0.2,140.6,3.012,60.2,0,0,870.1536,0,59.96,2.569,190,0.679,1.02,0,0,52.88,60.56,34,35.81
"2018-03-14 04:10:00",331718,0.155,151.1,2.689,62.68,0,0,870.1814,0,59.63,2.572,189,0.678,1.017,0,0,52.88,60.56,34,35.81
"2018-03-14 04:20:00",331719,0.22,151.5,2.643,63.41,0,0,870.2811,0,59.63,2.571,190,0.678,1.021,0,0,52.88,60.56,34,35.81
"2018-03-14 04:30:00",331720,0.105,171.2,2.834,62.94,0,0,870.3544,0,59.85,2.568,190,0.678,0.998,0,0,52.88,60.56,34,35.81
"2018-03-14 04:40:00",331721,0.2,171.2,2.913,62.86,0,0,870.3701,0,59.65,2.57,190,0.665,1.022,0,0,52.88,60.56,34,35.81
"2018-03-14 04:50:00",331722,0.138,171.4,2.772,64.21,0,0,870.3724,0,59.8,2.571,180,0.648,1.045,0.01137639,0,52.88,60.56,34,35.81
"2018-03-14 05:00:00",331723,0.257,171.5,2.606,65.97,0,0,870.4989,0,59.83,2.568,190,0.628,1.045,0,0,52.94,60.62,34.02,35.82
"2018-03-14 05:10:00",331724,0.214,171.4,2.605,66.3,0,0,870.6211,0,59.76,2.571,189,0.604,1.037,0,0,52.94,60.62,34.02,35.82
"2018-03-14 05:20:00",331725,0.162,180.4,2.322,68.5,0,0,870.619,0,59.47,2.575,189,0.594,1.052,0,0,52.88,60.62,34,35.82
"2018-03-14 05:30:00",331726,0.13,185.3,2.314,69.3,0,0,870.619,0,59.88,2.571,191,0.575,1.039,0,0,52.94,60.62,34.02,35.82
"2018-03-14 05:40:00",331727,0.081,182.1,2.266,70.02,0,0,870.5832,0,59.74,2.574,190,0.562,1.036,0,0,52.88,60.62,34,35.82
"2018-03-14 05:50:00",331728,0.217,182,2.18,71.7,0,0,870.6253,0,59.57,2.574,191,0.573,1.036,0.1441009,0,52.88,60.62,34,35.82
"2018-03-14 06:00:00",331729,0.105,171,1.737,74.04,0,0,870.6907,0,60.1,2.572,189,0.555,1.031,0.06446622,0,52.94,60.62,34.02,35.82
"2018-03-14 06:10:00",331730,0.38,171.5,1.85,74.64,0.9753763,0,870.8677,0,59.76,2.575,190,0.521,1.026,1.786093,1.239,52.88,60.62,34,35.82
"2018-03-14 06:20:00",331731,0.095,175.4,1.648,76.08,5.207251,0,870.8719,0,59.92,2.571,181,0.527,1.024,4.008282,0.79,52.88,60.62,34,35.82
"2018-03-14 06:30:00",331732,0.22,175.5,2.004,74.48,11.31515,0,870.8782,0,59.82,2.575,178,0.53,1.026,7.117828,0.632,52.88,60.62,34,35.82
"2018-03-14 06:40:00",331733,0.404,176.8,1.366,77.93,17.02582,0,870.8782,0,59.94,2.574,190,0.526,1.026,10.0719,0.592,52.94,60.62,34.02,35.82
"2018-03-14 06:50:00",331734,0.492,178.1,1.757,77.1,37.51265,0,870.8909,0,59.8,2.573,189,0.567,1.031,21.41795,0.596,52.88,60.62,34,35.82
"2018-03-14 07:00:00",331735,0.528,177.4,1.835,76.81,40.05729,0,870.9246,0,59.9,2.572,190,0.588,1.027,28.70643,0.718,52.88,60.62,34,35.82
"2018-03-14 07:10:00",331736,0.645,178.8,2.071,76.26,43.80147,0,870.9099,0,59.96,2.569,190,0.638,1.016,33.39729,0.763,52.94,60.62,34.02,35.82
"2018-03-14 07:20:00",331737,0.291,189.4,2.854,73.4,51.72641,0,871.1143,0,59.73,2.566,190,0.678,1.029,37.57622,0.732,52.94,60.62,34.02,35.82
"2018-03-14 07:30:00",331738,0.235,170.5,3.682,69.66,89.27446,0,871.1312,0,59.87,2.565,189,0.679,1.049,44.22382,0.532,52.94,60.62,34.02,35.82
"2018-03-14 07:40:00",331739,0.295,151,4.361,66.47,205.71,0,871.1312,0,60.08,2.555,190,0.645,1.104,55.89221,0.277,52.94,60.62,34.02,35.82
"2018-03-14 07:50:00",331740,0.394,179.3,5.689,60.43,193.0301,0,871.1566,0,59.83,2.555,187,0.594,1.067,69.15708,0.375,52.94,60.62,34.02,35.82
"2018-03-14 08:00:00",331741,0.718,174.6,6.335,52.99,173.5359,0,871.2692,0,59.48,2.553,178,0.588,1.024,82.87989,0.572,53,60.62,34.03,35.82
"2018-03-14 08:10:00",331742,0.85,173.7,7.008,45.92,219.7411,0,871.198,0,59.56,2.552,189,0.651,1.014,89.59804,0.468,52.94,60.62,34.02,35.82
"2018-03-14 08:20:00",331743,0.757,162.4,7.164,43.18,150.0463,0,871.1448,0,59.76,2.549,189,0.615,1.062,91.06503,0.743,52.94,60.62,34.02,35.82
"2018-03-14 08:30:00",331744,0.835,161.2,7.418,40.61,76.17734,0,871.2264,0,59.69,2.548,181,0.56,1.012,89.56844,1.185,52.94,60.68,34.02,35.83
"2018-03-14 08:40:00",331745,0.465,330.7,7.433,40.85,98.30582,0,871.2048,0,59.71,2.549,174,0.53,1.013,88.38794,0.973,52.94,60.68,34.02,35.83
"2018-03-14 08:50:00",331746,0.54,8.21,7.187,44.81,82.50423,0,871.1996,0,59.8,2.548,177,0.528,0.995,86.75422,1.061,52.94,60.68,34.02,35.83
"2018-03-14 09:00:00",331747,0.494,218.6,7.49,44.15,101.7345,0,871.1983,0,59.77,2.548,181,0.518,0.987,84.64964,0.919,52.94,60.68,34.02,35.83
"2018-03-14 09:10:00",331748,0.491,341.4,7.116,49.27,88.01172,0,871.2717,0,59.83,2.549,172,0.474,0.982,80.27467,0.918,52.94,60.68,34.02,35.83
"2018-03-14 09:20:00",331749,0.612,290.7,6.984,50.55,99.77059,0,871.301,0,59.83,2.549,185,0.471,0.974,75.63571,0.764,52.94,60.68,34.02,35.83
"2018-03-14 09:30:00",331750,0.608,335.8,7.27,47.71,88.71841,0,871.3369,0,59.77,2.548,178,0.488,0.945,74.54417,0.841,52.94,60.68,34.02,35.83
"2018-03-14 09:40:00",331751,0.786,336.2,7.426,49.77,119.1309,0,871.3116,0,59.97,2.546,178,0.5,0.938,76.23805,0.678,52.94,60.68,34.02,35.83
"2018-03-14 09:50:00",331752,0.808,19.68,7.514,50.89,133.6258,0,871.2357,0,59.85,2.546,190,0.532,0.943,78.57241,0.605,52.94,60.68,34.02,35.83
"2018-03-14 10:00:00",331753,0.762,318,7.574,50.04,366.6014,0,871.24,0,60.05,2.545,187,0.501,0.938,82.9986,0.311,52.94,60.68,34.02,35.83
"2018-03-14 10:10:00",331754,0.592,322.2,7.473,51.75,218.4846,0,871.2589,0,59.73,2.548,197,0.522,0.94,90.95665,0.462,53,60.68,34.03,35.83
"2018-03-14 10:20:00",331755,0.747,352.4,7.849,47.86,240.4589,0,871.3032,0,59.83,2.545,190,0.534,0.94,101.3741,0.514,52.94,60.68,34.02,35.83
"2018-03-14 10:30:00",331756,0.764,344.9,8,47.45,139.4348,0,871.2674,0,59.39,2.547,178,0.507,0.937,116.6081,0.873,52.94,60.68,34.02,35.83
"2018-03-14 10:40:00",331757,0.706,331.2,8.38,47.46,130.0532,0,871.2674,0,59.31,2.546,189,0.537,0.941,136.507,1.054,53,60.68,34.03,35.83
"2018-03-14 10:50:00",331758,0.865,0.018,8.71,44.51,587.9355,0,871.3453,0,59.56,2.544,177,0.544,0.954,154.7915,0.333,52.94,60.68,34.02,35.83
"2018-03-14 11:00:00",331759,0.55,350.9,9.06,43.47,814.1668,0,871.2484,0,59.13,2.547,173,0.547,0.949,159.2101,0.196,53,60.68,34.03,35.83
"2018-03-14 11:10:00",331760,0.736,12.79,9.41,41.76,830.3557,0,871.1957,0,59.26,2.543,172,0.541,0.952,164.5913,0.198,53,60.68,34.03,35.83
"2018-03-14 11:20:00",331761,0.4,341.7,9.53,42.32,835.3014,0,871.0421,0,58.87,2.546,180,0.508,0.962,185.5055,0.222,52.94,60.68,34.02,35.83
"2018-03-14 11:30:00",331762,0.678,339.2,9.72,39.59,846.845,0,870.8669,0,59.09,2.544,178,0.477,0.88,226.747,0.268,52.94,60.68,34.02,35.83
"2018-03-14 11:40:00",331763,0.785,19.45,10.17,37.68,854.931,0,870.8178,0,58.78,2.545,172,0.468,0.827,275.7177,0.322,52.94,60.74,34.02,35.85
"2018-03-14 11:50:00",331764,0.86,359.5,10.15,35.51,862.5112,0,870.6234,0,58.76,2.545,186,0.424,0.81,326.0461,0.378,52.94,60.74,34.02,35.85
"2018-03-14 12:00:00",331765,0.674,347.3,10.26,34.77,864.114,0,870.5154,0,58.99,2.541,182,0.373,0.808,363.4773,0.421,52.94,60.74,34.02,35.85
"2018-03-14 12:10:00",331766,0.917,13.91,10.79,32.94,867.3633,0,870.3467,0,58.67,2.544,182,0.372,0.806,383.7694,0.442,52.94,60.74,34.02,35.85
"2018-03-14 12:20:00",331767,0.781,31.69,10.8,32.55,863.6534,0,870.2015,0,58.24,2.547,185,0.374,0.81,388.7808,0.45,52.94,60.74,34.02,35.85
"2018-03-14 12:30:00",331768,0.508,304.8,10.88,32.74,854.9662,0,870.0731,0,58.39,2.545,180,0.374,0.832,385.9244,0.451,53,60.74,34.03,35.85
"2018-03-14 12:40:00",331769,0.75,356.5,10.8,33.22,849.0257,0,869.8436,0,58.87,2.541,180,0.374,0.792,381.2648,0.449,52.94,60.74,34.02,35.85
"2018-03-14 12:50:00",331770,0.665,317.6,10.64,34.32,839.5082,0,869.8046,0,58.3,2.549,189,0.364,0.762,376.097,0.448,53,60.68,34.03,35.83
"2018-03-14 13:00:00",331771,0.952,291,10.12,36.35,827.5627,0,869.7813,0,58.76,2.546,185,0.309,0.759,369.7967,0.447,53,60.74,34.03,35.85
"2018-03-14 13:10:00",331772,0.51,299.7,10.75,34.69,814.3407,0,869.6047,0,58.16,2.548,180,0.297,0.76,359.1306,0.441,52.94,60.74,34.02,35.85
"2018-03-14 13:20:00",331773,0.794,305.4,10.29,36.54,798.1448,0,869.5864,0,58.18,2.549,170,0.286,0.757,345.5533,0.433,52.94,60.74,34.02,35.85
"2018-03-14 13:30:00",331774,0.945,345.3,10.86,34.73,780.9849,0,869.5339,0,58.08,2.55,190,0.276,0.754,327.8371,0.42,53,60.74,34.03,35.85
"2018-03-14 13:40:00",331775,0.448,349.8,10.82,34.89,757.8065,0,869.4286,0,58.45,2.545,180,0.292,0.744,298.2706,0.394,53,60.68,34.03,35.83
"2018-03-14 13:50:00",331776,0.263,342.4,11.1,34.08,732.5471,0,869.3422,0,58.12,2.548,181,0.261,0.745,252.114,0.344,53,60.74,34.03,35.85
"2018-03-14 14:00:00",331777,0.405,345.7,11.03,34.01,707.0906,0,869.3359,0,57.84,2.55,178,0.285,0.754,191.6585,0.271,53,60.74,34.03,35.85
"2018-03-14 14:10:00",331778,0.662,335.1,11.1,33.06,607.713,0,869.3359,0,58.32,2.546,173,0.286,0.76,123.3112,0.205,53,60.74,34.03,35.85
"2018-03-14 14:20:00",331779,0.515,356.1,11.02,33.48,192.6282,0,869.3359,0,58.45,2.544,191,0.284,0.756,75.15127,0.4,53,60.74,34.03,35.85
"2018-03-14 14:30:00",331780,0.462,298.8,11.1,33.07,110.0811,0,869.3444,0,58.36,2.546,190,0.314,0.743,55.66074,0.505,53,60.74,34.03,35.85
"2018-03-14 14:40:00",331781,0.425,312.6,10.84,33.85,103.5316,0,869.4749,0,58.55,2.545,186,0.373,0.724,48.37215,0.467,52.94,60.74,34.02,35.85
"2018-03-14 14:50:00",331782,0.614,14.43,11.08,32.76,99.8698,0,869.5887,0,57.33,2.555,170,0.374,0.77,45.31503,0.454,53,60.74,34.03,35.85
"2018-03-14 15:00:00",331783,0.912,2.652,11.14,32.73,95.00184,0,869.7318,0,57.92,2.549,183,0.374,0.804,42.57613,0.448,53,60.74,34.03,35.85
"2018-03-14 15:10:00",331784,0.303,244.6,11.19,32.9,89.06137,0,869.795,0,57.13,2.556,177,0.372,0.803,39.56072,0.444,53,60.74,34.03,35.85
"2018-03-14 15:20:00",331785,0.3,300.4,11.26,33.11,84.67174,0,869.8412,0,57.2,2.557,185,0.358,0.874,37.05796,0.438,53,60.74,34.03,35.85
"2018-03-14 15:30:00",331786,0.198,231.5,11.33,32.33,80.70528,0,869.8412,0,56.91,2.558,187,0.317,0.846,35.07368,0.435,53,60.74,34.03,35.85
"2018-03-14 15:40:00",331787,0.38,256.5,11.41,32.36,76.28425,0,869.8392,0,57.66,2.551,182,0.355,0.838,32.89292,0.431,52.94,60.74,34.02,35.85
"2018-03-14 15:50:00",331788,0.384,326.7,11.25,32.32,71.56413,0,869.8412,0,57.1,2.558,177,0.381,0.849,30.7233,0.429,53,60.8,34.03,35.86
"2018-03-14 16:00:00",331789,0.188,286.7,11.16,32.53,66.24557,0,869.8451,0,57.46,2.554,190,0.381,0.844,28.35994,0.428,53.05,60.8,34.04,35.86
"2018-03-14 16:10:00",331790,0.22,224.2,11.31,32.54,61.74965,0,869.8669,0,57.24,2.555,186,0.399,0.86,26.34953,0.427,53,60.8,34.03,35.86
"2018-03-14 16:20:00",331791,0.143,241.1,11.17,32.91,56.91049,0,869.884,0,57.35,2.555,177,0.431,0.874,24.17181,0.425,53.05,60.8,34.04,35.86
"2018-03-14 16:30:00",331792,0.152,264.9,10.98,33.05,51.61875,0,869.9219,0,57.47,2.555,181,0.454,0.884,21.83466,0.423,53.05,60.86,34.04,35.88
"2018-03-14 16:40:00",331793,0.181,248.6,10.82,33.43,46.80524,0,870.1082,0,57.2,2.558,178,0.459,0.891,19.80014,0.423,53.11,60.86,34.06,35.88
"2018-03-14 16:50:00",331794,0.041,225.6,10.86,33.09,41.7552,0,870.168,0,57.06,2.559,178,0.461,0.886,17.66299,0.423,53.11,60.86,34.06,35.88
"2018-03-14 17:00:00",331795,0.219,205.5,10.82,32.93,36.74812,0,870.199,0,57.18,2.558,181,0.461,0.897,15.70385,0.427,53.11,60.86,34.06,35.88
"2018-03-14 17:10:00",331796,0.079,189.2,10.71,33.51,30.80556,0,870.3942,0,57.09,2.56,177,0.462,0.898,13.15729,0.427,53.16,60.92,34.07,35.89
"2018-03-14 17:20:00",331797,0.019,112.6,10.36,35.57,24.53676,0,870.4393,0,57.27,2.56,181,0.46,0.889,10.33787,0.421,53.22,60.98,34.08,35.9
"2018-03-14 17:30:00",331798,0.177,200,9.96,38.04,17.88672,0,870.4395,0,56.92,2.566,168,0.46,0.905,7.654872,0.428,53.22,60.98,34.08,35.9
"2018-03-14 17:40:00",331799,0.188,176.6,9.14,42.32,10.46241,0,870.4733,0,57.04,2.569,173,0.476,0.941,4.471658,0.429,53.28,61.04,34.1,35.92
"2018-03-14 17:50:00",331800,0.098,166.3,8.5,45.1,3.529395,0,870.6228,0,57.16,2.57,186,0.501,0.96,1.64845,0.494,53.33,61.1,34.11,35.93
"2018-03-14 18:00:00",331801,0.393,199.6,7.973,47.79,0.03144227,0,870.6923,0,56.93,2.576,181,0.492,0.925,0.1440025,0.112,53.33,61.1,34.11,35.93
"2018-03-14 18:10:00",331802,0.182,190.6,7.071,51.64,0,0,870.6923,0,57.09,2.577,168,0.477,0.895,0,0,53.33,61.16,34.11,35.94
"2018-03-14 18:20:00",331803,0.406,190.2,6.653,53.64,0,0,870.7471,0,57.33,2.575,177,0.465,0.872,0,0,53.45,61.16,34.14,35.94
"2018-03-14 18:30:00",331804,0.258,196.3,6.467,54.83,0,0,870.8313,0,57.45,2.575,176,0.461,0.853,0,0,53.45,61.16,34.14,35.94
"2018-03-14 18:40:00",331805,0.241,185.4,6.263,56.2,0,0,870.9282,0,57.13,2.581,168,0.461,0.849,0,0,53.5,61.22,34.15,35.96
"2018-03-14 18:50:00",331806,0.244,180.4,6.064,58.13,0,0,870.9745,0,56.91,2.583,172,0.454,0.851,0,0,53.56,61.28,34.17,35.97
"2018-03-14 19:00:00",331807,0.46,180.6,5.7,61.97,0,0,871.1494,0,57.2,2.581,173,0.463,0.862,0,0,53.56,61.34,34.17,35.98
"2018-03-14 19:10:00",331808,0.554,186.2,5.573,64.73,0,0,871.1894,0,57.37,2.581,169,0.463,0.881,0,0,53.61,61.4,34.18,36
"2018-03-14 19:20:00",331809,0.466,196.8,5.66,66.97,0,0,871.1978,0,57.08,2.582,170,0.461,0.909,0,0,53.61,61.4,34.18,36
"2018-03-14 19:30:00",331810,0.595,198.2,5.58,68.55,0,0,871.3031,0,57.25,2.582,172,0.494,0.927,0,0,53.61,61.46,34.18,36.01
"2018-03-14 19:40:00",331811,0.57,195.6,5.312,70.7,0,0,871.4442,0,57.25,2.583,169,0.505,0.934,0,0,53.73,61.52,34.21,36.02
"2018-03-14 19:50:00",331812,0.667,197.9,5.21,71.61,0,0,871.4505,0,57.01,2.585,168,0.515,0.937,0,0,53.73,61.46,34.21,36.01
"2018-03-14 20:00:00",331813,0.8,182.3,4.764,73.25,0,0,871.4505,0,57.35,2.584,169,0.51,0.938,0,0,53.73,61.52,34.21,36.02
"2018-03-14 20:10:00",331814,0.454,184.7,4.845,72.57,0,0,871.48,0,57.03,2.587,172,0.509,0.939,0,0,53.78,61.58,34.22,36.04
"2018-03-14 20:20:00",331815,0.543,187.4,4.65,71.84,0,0,871.7177,0,57.23,2.585,169,0.507,0.945,0,0,53.73,61.58,34.21,36.04
"2018-03-14 20:30:00",331816,0.611,187,4.7,71.21,0,0,871.7433,0,57.25,2.586,181,0.506,0.956,0,0,53.78,61.64,34.22,36.05
"2018-03-14 20:40:00",331817,0.267,179.8,4.776,71.5,0,0,871.773,0,56.93,2.588,169,0.507,0.98,0.003790837,0,53.84,61.64,34.23,36.05
"2018-03-14 20:50:00",331818,0.47,183.2,4.584,72.88,0,0,871.7907,0,57.25,2.585,176,0.51,1.001,0,0,53.84,61.7,34.23,36.06
"2018-03-14 21:00:00",331819,0.31,167.1,4.49,74.03,0,0,871.7825,0,57.21,2.587,169,0.517,1.018,0.007581673,0,53.84,61.7,34.23,36.06
"2018-03-14 21:10:00",331820,0.435,172.2,4.367,74.69,0,0,871.7794,0,57.15,2.588,172,0.537,1.011,0,0,53.84,61.76,34.23,36.08
"2018-03-14 21:20:00",331821,0.438,158.4,4.602,73.41,0,0,871.7944,0,57.05,2.587,169,0.538,1.02,0.1364701,0,53.84,61.76,34.23,36.08
"2018-03-14 21:30:00",331822,0.514,159.9,4.533,72.65,0,0,871.7734,0,57.01,2.588,169,0.534,1.023,0,0,53.9,61.82,34.25,36.09
"2018-03-14 21:40:00",331823,0.401,151.2,4.767,70.07,0,0,871.7923,0,57.15,2.584,173,0.53,1.021,0.1781693,0,53.9,61.82,34.25,36.09
"2018-03-14 21:50:00",331824,0.46,161.4,5.344,65.26,0,0,871.6765,0,57.33,2.58,169,0.525,1.021,0.185751,0,53.9,61.88,34.25,36.11
"2018-03-14 22:00:00",331825,0.418,160.2,5.821,61.66,0,0,871.7017,0,57.31,2.578,180,0.524,1.021,0.2881036,0,53.95,61.82,34.26,36.09
"2018-03-14 22:10:00",331826,0.236,160.2,6.039,60.15,0,0,871.5858,0,57.13,2.581,172,0.529,1.023,0.007581673,0,53.9,61.88,34.25,36.11
"2018-03-14 22:20:00",331827,0.266,156.2,5.755,62.56,0,0,871.55,0,57.47,2.578,177,0.52,1.022,0,0,53.9,61.88,34.25,36.11
"2018-03-14 22:30:00",331828,0.071,170.8,5.992,64.63,0,0,871.5856,0,56.95,2.582,169,0.523,1.021,0,0,53.9,61.94,34.25,36.12
"2018-03-14 22:40:00",331829,0.172,354.6,6.2,65.71,0,0,871.5452,0,56.95,2.581,169,0.536,1.021,0,0,53.9,61.94,34.25,36.12
"2018-03-14 22:50:00",331830,0.21,337.2,6.394,66.15,0,0,871.5436,0,56.74,2.582,170,0.521,1.012,0,0,53.95,61.94,34.26,36.12
"2018-03-14 23:00:00",331831,0.204,320.2,6.567,66.52,0,0,871.4825,0,57.01,2.58,176,0.51,1.001,0.003790837,0,53.9,62,34.25,36.13
"2018-03-14 23:10:00",331832,0.076,76.92,6.102,69.03,0,0,871.2909,0,57.09,2.581,169,0.512,1.014,0,0,53.95,62,34.26,36.13
"2018-03-14 23:20:00",331833,0.181,184.9,5.697,70.79,0,0,871.2909,0,57.03,2.584,169,0.524,1.021,0,0,53.95,62,34.26,36.13
"2018-03-14 23:30:00",331834,0.368,181,5.452,72.11,0,0,871.2909,0,57.17,2.583,185,0.538,1.023,0,0,53.95,62,34.26,36.13
"2018-03-14 23:40:00",331835,0.346,186.9,5.531,71.66,0,0,871.2656,0,57.13,2.581,173,0.542,1.023,0.01137251,0,53.95,62,34.26,36.13
"2018-03-14 23:50:00",331836,0.282,180.3,5.709,70.24,0,0,871.234,0,56.95,2.587,170,0.549,1.023,0.08718923,0,54.01,62.06,34.27,36.15
